Juliana Airport, Sint Maarten

9:57 PM AST on July 20, 2017 (GMT -0400)
Princess Juliana International

Weather History for TNCM - October, 2014

Change the Weather History Date:

Monday, October 20, 2014

  Actual Average Record
Temperature  
Mean Temperature 84 °F -  
Max Temperature 88 °F 85 °F 89 °F (1998)
Min Temperature 79 °F 75 °F 73 °F (2006)
Cooling Degree Days 18    
Growing Degree Days 34 (Base 50)    
Moisture  
Dew Point 72 °F    
Average Humidity 68    
Maximum Humidity 83    
Minimum Humidity 47    
Precipitation  
Precipitation 0.00 in 0.16 in - ()
Sea Level Pressure  
Sea Level Pressure 29.94 in    
Wind  
Wind Speed 5 mph ()    
Max Wind Speed 10 mph    
Max Gust Speed -    
Visibility 6.2 miles    
Events      
Averages and records for this station are not official NWS values.
T = Trace of Precipitation, MM = Missing Value Source: Averaged Metar Reports

Daily Weather History Graph

Daily Weather History Graph

Search for Another Location

Airport or City:

Trip Planner

Search our weather history database for the weather conditions in past years. The results will help you decide how hot, cold, wet, or windy it might be!

Date:

Astronomy

Oct. 20, 2014 Rise Set
Actual Time 6:07 AM AST 5:46 PM AST
Civil Twilight 5:45 AM AST 6:08 PM AST
Nautical Twilight 5:19 AM AST 6:34 PM AST
Astronomical Twilight 4:54 AM AST 6:59 PM AST
Moon 3:18 AM AST (10/20) 3:44 PM AST (10/20)
Length of Visible Light 12h 23m
Length of Day
11h 39m
Waning Crescent, 10% of the Moon is Illuminated
Oct 20
Waning Crescent
Oct 23
New
Oct 30
First Quarter
Nov 6
Full
Nov 14
Last Quarter

Hourly Weather History & Observations

Time (AST) Temp. Heat Index Dew Point Humidity Pressure Visibility Wind Dir Wind Speed Gust Speed Precip Events Conditions
12:00 AM 80.6 °F 85.4 °F 73.4 °F 79% 29.95 in 6.2 mi NE 5.8 mph - N/A   Partly Cloudy
1:00 AM 80.6 °F 85.4 °F 73.4 °F 79% 29.92 in 6.2 mi ENE 4.6 mph - N/A   Partly Cloudy
2:00 AM 80 °F - 72 °F 71% 29.94 in 25 mi ENE 3.5 mph - -   Scattered Clouds
2:00 AM 80.6 °F 84.6 °F 71.6 °F 74% 29.92 in 6.2 mi ENE 3.5 mph - N/A   Partly Cloudy
3:00 AM 80.6 °F 84.6 °F 71.6 °F 74% 29.92 in 6.2 mi East 2.3 mph - N/A   Partly Cloudy
4:00 AM 78.8 °F - 73.4 °F 83% 29.92 in 6.2 mi Variable 1.2 mph - N/A   Partly Cloudy
5:00 AM 80 °F - 72 °F 71% 29.93 in 25 mi ENE 4.6 mph - -   Scattered Clouds
5:00 AM 80.6 °F 84.6 °F 71.6 °F 74% 29.92 in 6.2 mi ENE 4.6 mph - N/A   Partly Cloudy
6:00 AM 78.8 °F - 71.6 °F 78% 29.92 in 6.2 mi ENE 2.3 mph - N/A   Partly Cloudy
7:00 AM 82.4 °F 87.2 °F 71.6 °F 70% 29.95 in 6.2 mi East 4.6 mph - N/A   Partly Cloudy
8:00 AM 84 °F - 72 °F 59% 29.98 in 44 mi NE 4.6 mph - -   Scattered Clouds
8:00 AM 84.2 °F 89.6 °F 71.6 °F 66% 29.98 in 6.2 mi NE 4.6 mph - N/A   Partly Cloudy
9:00 AM 84.2 °F 90.9 °F 73.4 °F 70% 29.98 in 6.2 mi ENE 8.1 mph - N/A   Scattered Clouds
10:00 AM 86.0 °F 91.8 °F 71.6 °F 62% 29.98 in 6.2 mi ENE 6.9 mph - N/A   Partly Cloudy
11:00 AM 87 °F - 70 °F 47% 29.99 in 44 mi East 6.9 mph - -   Partly Cloudy
11:00 AM 87.8 °F 93.8 °F 71.6 °F 58% 29.98 in 6.2 mi East 6.9 mph - N/A   Scattered Clouds
12:00 PM 87.8 °F 93.8 °F 71.6 °F 58% 29.95 in 6.2 mi East 8.1 mph - N/A   Scattered Clouds
1:00 PM 87.8 °F 92.6 °F 69.8 °F 55% 29.95 in 6.2 mi NE 6.9 mph - N/A   Scattered Clouds
2:00 PM 88 °F - 72 °F 50% 29.93 in 31 mi NE 8.1 mph - -   Scattered Clouds
2:00 PM 87.8 °F 93.8 °F 71.6 °F 58% 29.92 in 6.2 mi NNE 6.9 mph - N/A   Partly Cloudy
3:00 PM 86.0 °F 91.8 °F 71.6 °F 62% 29.92 in 6.2 mi NE 9.2 mph - N/A   Partly Cloudy
4:00 PM 86.0 °F 95.1 °F 75.2 °F 70% 29.89 in 6.2 mi NNE 8.1 mph - N/A   Partly Cloudy
5:00 PM 83 °F - 73 °F 66% 29.93 in 25 mi East 10.4 mph - -   Partly Cloudy
5:00 PM 86.0 °F 91.8 °F 71.6 °F 62% 29.89 in 6.2 mi ENE 8.1 mph - N/A   Partly Cloudy
6:00 PM 84.2 °F 90.9 °F 73.4 °F 70% 29.92 in 6.2 mi NE 6.9 mph - N/A   Partly Cloudy
7:00 PM 82.4 °F 88.2 °F 73.4 °F 74% 29.92 in 6.2 mi ENE 6.9 mph - N/A   Partly Cloudy
8:00 PM 82 °F - 73 °F 69% 29.95 in 25 mi ENE 5.8 mph - -   Scattered Clouds
8:00 PM 82.4 °F 88.2 °F 73.4 °F 74% 29.95 in 6.2 mi ENE 5.8 mph - N/A   Partly Cloudy
9:00 PM 82.4 °F 88.2 °F 73.4 °F 74% 29.95 in 6.2 mi ENE 5.8 mph - N/A   Partly Cloudy
10:00 PM 82.4 °F 88.2 °F 73.4 °F 74% 29.98 in 6.2 mi East 8.1 mph - N/A   Partly Cloudy
11:00 PM 82 °F - 72 °F 66% 29.97 in 44 mi East 6.9 mph - -   Scattered Clouds
11:00 PM 82.4 °F 88.2 °F 73.4 °F 74% 29.95 in 6.2 mi East 6.9 mph - N/A   Partly Cloudy